| time (UTC) | temp F | wind direction | speed MPH | gust MPH | rain 1hr in | rain 24hr in | rain mn in | humidity % | barometer mb |
| 20260505205005 | 83 | 222 | 6.0 | 24.0 | 0.00 | 0.00 | 0.00 | 37 | 1010.8 |
| 20260505204005 | 83 | 222 | 6.0 | 17.0 | 0.00 | 0.00 | 0.00 | 36 | 1010.9 |
| 20260505203503 | 83 | 210 | 5.0 | 15.0 | 0.00 | 0.00 | 0.00 | 37 | 1010.7 |
| 20260505203004 | 83 | 262 | 5.0 | 15.0 | 0.00 | 0.00 | 0.00 | 38 | 1010.7 |
| 20260505202503 | 83 | 259 | 5.0 | 14.0 | 0.00 | 0.00 | 0.00 | 40 | 1010.7 |
| 20260505202004 | 83 | 286 | 5.0 | 14.0 | 0.00 | 0.00 | 0.00 | 38 | 1010.9 |
| 20260505201504 | 83 | 293 | 6.0 | 16.0 | 0.00 | 0.00 | 0.00 | 38 | 1011.0 |
| 20260505201004 | 83 | 250 | 7.0 | 18.0 | 0.00 | 0.00 | 0.00 | 39 | 1011.0 |
| 20260505200503 | 83 | 288 | 6.0 | 18.0 | 0.00 | 0.00 | 0.00 | 38 | 1011.1 |
| 20260505200005 | 84 | 289 | 6.0 | 17.0 | 0.00 | 0.00 | 0.00 | 38 | 1011.1 |
| 20260505195010 | 83 | 265 | 5.0 | 17.0 | 0.00 | 0.00 | 0.00 | 38 | 1011.2 |
| 20260505194504 | 84 | 263 | 6.0 | 15.0 | 0.00 | 0.00 | 0.00 | 37 | 1011.4 |
| 20260505193503 | 85 | 234 | 4.0 | 19.0 | 0.00 | 0.00 | 0.00 | 36 | 1011.2 |
| 20260505193005 | 85 | 242 | 3.0 | 10.0 | 0.00 | 0.00 | 0.00 | 38 | 1011.3 |
| 20260505192503 | 85 | 167 | 4.0 | 12.0 | 0.00 | 0.00 | 0.00 | 37 | 1011.3 |
| 20260505192004 | 85 | 171 | 5.0 | 12.0 | 0.00 | 0.00 | 0.00 | 36 | 1011.3 |
| 20260505191504 | 85 | 227 | 5.0 | 14.0 | 0.00 | 0.00 | 0.00 | 37 | 1011.3 |
| 20260505191005 | 85 | 189 | 6.0 | 14.0 | 0.00 | 0.00 | 0.00 | 35 | 1011.3 |
| 20260505190503 | 85 | 11 | 6.0 | 14.0 | 0.00 | 0.00 | 0.00 | 35 | 1011.4 |
| 20260505190005 | 84 | 297 | 6.0 | 17.0 | 0.00 | 0.00 | 0.00 | 36 | 1011.4 |
| 20260505185503 | 84 | 355 | 6.0 | 17.0 | 0.00 | 0.00 | 0.00 | 36 | 1011.6 |
| 20260505185005 | 85 | 327 | 4.0 | 14.0 | 0.00 | 0.00 | 0.00 | 40 | 1011.5 |
| 20260505184504 | 84 | 187 | 5.0 | 12.0 | 0.00 | 0.00 | 0.00 | 41 | 1011.7 |
| 20260505184005 | 84 | 145 | 5.0 | 20.0 | 0.00 | 0.00 | 0.00 | 42 | 1011.6 |
| 20260505183005 | 84 | 236 | 5.0 | 13.0 | 0.00 | 0.00 | 0.00 | 39 | 1011.6 |
| 20260505182504 | 84 | 217 | 5.0 | 13.0 | 0.00 | 0.00 | 0.00 | 39 | 1011.7 |
| 20260505182005 | 83 | 255 | 5.0 | 13.0 | 0.00 | 0.00 | 0.00 | 40 | 1011.8 |
| 20260505181504 | 84 | 242 | 6.0 | 17.0 | 0.00 | 0.00 | 0.00 | 42 | 1011.8 |
| 20260505180504 | 84 | 238 | 4.0 | 13.0 | 0.00 | 0.00 | 0.00 | 43 | 1011.9 |
| 20260505180006 | 84 | 265 | 4.0 | 14.0 | 0.00 | 0.00 | 0.00 | 45 | 1012.0 |
| 20260505175504 | 84 | 261 | 5.0 | 12.0 | 0.00 | 0.00 | 0.00 | 42 | 1012.1 |
| 20260505175005 | 84 | 313 | 4.0 | 14.0 | 0.00 | 0.00 | 0.00 | 47 | 1012.2 |
| 20260505174503 | 84 | 223 | 4.0 | 14.0 | 0.00 | 0.00 | 0.00 | 45 | 1012.1 |
| 20260505174004 | 83 | 285 | 5.0 | 13.0 | 0.00 | 0.00 | 0.00 | 43 | 1012.2 |
| 20260505173006 | 84 | 306 | 4.0 | 13.0 | 0.00 | 0.00 | 0.00 | 43 | 1012.2 |
| 20260505172503 | 83 | 244 | 4.0 | 11.0 | 0.00 | 0.00 | 0.00 | 43 | 1012.3 |
| 20260505171505 | 83 | 205 | 4.0 | 10.0 | 0.00 | 0.00 | 0.00 | 43 | 1012.2 |
| 20260505171003 | 82 | 198 | 4.0 | 10.0 | 0.00 | 0.00 | 0.00 | 48 | 1012.3 |
| 20260505170503 | 82 | 266 | 5.0 | 12.0 | 0.00 | 0.00 | 0.00 | 46 | 1012.4 |
| 20260505170005 | 82 | 202 | 4.0 | 12.0 | 0.00 | 0.00 | 0.00 | 44 | 1012.4 |
| 20260505165502 | 82 | 253 | 4.0 | 10.0 | 0.00 | 0.00 | 0.00 | 46 | 1012.4 |
| 20260505165004 | 83 | 212 | 4.0 | 10.0 | 0.00 | 0.00 | 0.00 | 44 | 1012.4 |
| 20260505164502 | 82 | 253 | 5.0 | 11.0 | 0.00 | 0.00 | 0.00 | 46 | 1012.4 |
| 20260505164002 | 81 | 234 | 5.0 | 15.0 | 0.00 | 0.00 | 0.00 | 46 | 1012.4 |
| 20260505162502 | 81 | 128 | 4.0 | 10.0 | 0.00 | 0.00 | 0.00 | 48 | 1012.5 |
| 20260505162004 | 81 | 317 | 4.0 | 13.0 | 0.00 | 0.00 | 0.00 | 48 | 1012.4 |
| 20260505161503 | 80 | 311 | 4.0 | 13.0 | 0.00 | 0.00 | 0.00 | 46 | 1012.5 |
| 20260505161005 | 80 | 213 | 4.0 | 12.0 | 0.00 | 0.00 | 0.00 | 50 | 1012.7 |
| 20260505160503 | 80 | 261 | 4.0 | 12.0 | 0.00 | 0.00 | 0.00 | 51 | 1012.7 |
| 20260505153004 | 78 | 210 | 4.0 | 14.0 | 0.00 | 0.00 | 0.00 | 50 | 1012.8 |
| 20260505152504 | 78 | 271 | 4.0 | 14.0 | 0.00 | 0.00 | 0.00 | 53 | 1012.9 |
| 20260505152005 | 78 | 272 | 4.0 | 12.0 | 0.00 | 0.00 | 0.00 | 50 | 1012.8 |
| 20260505151503 | 78 | 265 | 4.0 | 11.0 | 0.00 | 0.00 | 0.00 | 54 | 1012.8 |
| 20260505151004 | 77 | 283 | 4.0 | 13.0 | 0.00 | 0.00 | 0.00 | 51 | 1012.8 |
| 20260505150502 | 77 | 219 | 4.0 | 13.0 | 0.00 | 0.00 | 0.00 | 51 | 1012.8 |
| 20260505140503 | 75 | 294 | 4.0 | 11.0 | 0.00 | 0.00 | 0.00 | 57 | 1013.0 |
| 20260505125006 | 70 | 259 | 3.0 | 10.0 | 0.00 | 0.00 | 0.00 | 64 | 1013.1 |
| 20260505124503 | 70 | 205 | 3.0 | 11.0 | 0.00 | 0.00 | 0.00 | 66 | 1013.0 |
| 20260505124003 | 69 | 281 | 3.0 | 11.0 | 0.00 | 0.00 | 0.00 | 65 | 1013.0 |
| 20260505123503 | 69 | 251 | 3.0 | 8.0 | 0.00 | 0.00 | 0.00 | 66 | 1013.1 |
| 20260505122503 | 68 | 252 | 3.0 | 9.0 | 0.00 | 0.00 | 0.00 | 66 | 1013.0 |
| 20260505122004 | 68 | 227 | 3.0 | 8.0 | 0.00 | 0.00 | 0.00 | 67 | 1013.0 |
| 20260505121503 | 67 | 238 | 3.0 | 8.0 | 0.00 | 0.00 | 0.00 | 67 | 1013.0 |
| 20260505121004 | 66 | 325 | 3.0 | 10.0 | 0.00 | 0.00 | 0.00 | 68 | 1013.0 |
| 20260505115503 | 65 | 306 | 3.0 | 8.0 | 0.00 | 0.00 | 0.00 | 68 | 1012.9 |
| 20260505115002 | 65 | 205 | 3.0 | 9.0 | 0.00 | 0.00 | 0.00 | 68 | 1012.9 |
| 20260505114003 | 64 | 169 | 2.0 | 5.0 | 0.00 | 0.00 | 0.00 | 69 | 1012.8 |
| 20260505113502 | 64 | 225 | 3.0 | 7.0 | 0.00 | 0.00 | 0.00 | 70 | 1012.8 |
| 20260505112503 | 63 | 245 | 3.0 | 7.0 | 0.00 | 0.00 | 0.00 | 70 | 1012.9 |
| 20260505112003 | 63 | 262 | 3.0 | 10.0 | 0.00 | 0.00 | 0.00 | 70 | 1012.9 |
| 20260505111501 | 63 | 257 | 3.0 | 7.0 | 0.00 | 0.00 | 0.00 | 70 | 1012.8 |
| 20260505111003 | 63 | 217 | 3.0 | 8.0 | 0.00 | 0.00 | 0.00 | 71 | 1012.8 |
| 20260505110501 | 63 | 178 | 3.0 | 8.0 | 0.00 | 0.00 | 0.00 | 72 | 1012.8 |
| 20260505102002 | 62 | 238 | 2.0 | 5.0 | 0.00 | 0.00 | 0.00 | 72 | 1012.4 |
| 20260505101003 | 62 | 233 | 3.0 | 6.0 | 0.00 | 0.00 | 0.00 | 72 | 1012.4 |
| 20260505095501 | 62 | 219 | 3.0 | 8.0 | 0.00 | 0.00 | 0.00 | 72 | 1012.3 |
| 20260505095004 | 62 | 213 | 3.0 | 9.0 | 0.00 | 0.00 | 0.00 | 71 | 1012.1 |
| 20260505094500 | 62 | 243 | 3.0 | 9.0 | 0.00 | 0.00 | 0.00 | 71 | 1012.2 |
| 20260505094004 | 62 | 263 | 3.0 | 12.0 | 0.00 | 0.00 | 0.00 | 71 | 1012.2 |
| 20260505093502 | 62 | 277 | 3.0 | 12.0 | 0.00 | 0.00 | 0.00 | 71 | 1012.1 |
| 20260505093002 | 62 | 263 | 3.0 | 9.0 | 0.00 | 0.00 | 0.00 | 71 | 1012.1 |
| 20260505092501 | 62 | 281 | 3.0 | 7.0 | 0.00 | 0.00 | 0.00 | 72 | 1012.1 |
| 20260505092002 | 62 | 298 | 2.0 | 7.0 | 0.00 | 0.00 | 0.00 | 71 | 1012.1 |
| 20260505091500 | 62 | 243 | 3.0 | 7.0 | 0.00 | 0.00 | 0.00 | 71 | 1012.0 |
| 20260505090502 | 62 | 281 | 3.0 | 8.0 | 0.00 | 0.00 | 0.00 | 72 | 1011.9 |
| 20260505090002 | 62 | 271 | 3.0 | 8.0 | 0.00 | 0.00 | 0.00 | 71 | 1011.9 |
| 20260505085500 | 62 | 225 | 3.0 | 8.0 | 0.00 | 0.00 | 0.00 | 72 | 1011.9 |
| 20260505085004 | 63 | 281 | 2.0 | 8.0 | 0.00 | 0.00 | 0.00 | 72 | 1011.8 |
| 20260505084001 | 62 | 215 | 3.0 | 9.0 | 0.00 | 0.00 | 0.00 | 72 | 1011.8 |
| 20260505083500 | 62 | 251 | 3.0 | 9.0 | 0.00 | 0.00 | 0.00 | 73 | 1011.8 |
| 20260505082459 | 62 | 257 | 2.0 | 7.0 | 0.00 | 0.00 | 0.00 | 72 | 1011.9 |
| 20260505082001 | 62 | 211 | 2.0 | 8.0 | 0.00 | 0.00 | 0.00 | 73 | 1011.9 |
| 20260505081500 | 62 | 285 | 2.0 | 8.0 | 0.00 | 0.00 | 0.00 | 73 | 1012.0 |
| 20260505081002 | 62 | 292 | 2.0 | 6.0 | 0.00 | 0.00 | 0.00 | 73 | 1012.1 |
| 20260505080500 | 62 | 11 | 2.0 | 6.0 | 0.00 | 0.00 | 0.00 | 73 | 1012.0 |
| 20260505080001 | 61 | 221 | 2.0 | 5.0 | 0.00 | 0.00 | 0.00 | 74 | 1012.0 |
| 20260505075459 | 61 | 223 | 2.0 | 7.0 | 0.00 | 0.00 | 0.00 | 74 | 1012.0 |
| 20260505075003 | 61 | 187 | 2.0 | 7.0 | 0.00 | 0.00 | 0.00 | 75 | 1012.0 |
| 20260505074500 | 61 | 275 | 2.0 | 5.0 | 0.00 | 0.00 | 0.00 | 75 | 1012.0 |
| 20260505074001 | 61 | 257 | 2.0 | 7.0 | 0.00 | 0.00 | 0.00 | 75 | 1012.0 |
| 20260505073500 | 61 | 250 | 2.0 | 7.0 | 0.00 | 0.00 | 0.00 | 75 | 1012.0 |
| 20260505073001 | 61 | 288 | 2.0 | 5.0 | 0.00 | 0.00 | 0.00 | 76 | 1012.0 |
| 20260505072500 | 61 | 289 | 2.0 | 5.0 | 0.00 | 0.00 | 0.00 | 76 | 1011.9 |
| 20260505071501 | 61 | 240 | 2.0 | 8.0 | 0.00 | 0.00 | 0.00 | 76 | 1011.8 |
| 20260505071001 | 61 | 310 | 2.0 | 8.0 | 0.00 | 0.00 | 0.00 | 76 | 1011.9 |
| 20260505065500 | 61 | 236 | 2.0 | 10.0 | 0.00 | 0.00 | 0.00 | 76 | 1011.7 |
| 20260505065001 | 61 | 277 | 2.0 | 11.0 | 0.00 | 0.00 | 0.00 | 76 | 1011.8 |
| 20260505064500 | 61 | 184 | 2.0 | 8.0 | 0.00 | 0.00 | 0.00 | 76 | 1011.8 |
| 20260505064000 | 61 | 270 | 2.0 | 8.0 | 0.00 | 0.00 | 0.00 | 76 | 1011.7 |
| 20260505063002 | 61 | 277 | 2.0 | 7.0 | 0.00 | 0.00 | 0.00 | 77 | 1011.7 |
| 20260505062500 | 61 | 238 | 2.0 | 5.0 | 0.00 | 0.00 | 0.00 | 77 | 1011.7 |
| 20260505062002 | 61 | 237 | 2.0 | 5.0 | 0.00 | 0.00 | 0.00 | 77 | 1011.7 |
| 20260505061002 | 61 | 306 | 2.0 | 8.0 | 0.00 | 0.00 | 0.00 | 77 | 1011.8 |
| 20260505060501 | 61 | 263 | 1.0 | 7.0 | 0.00 | 0.00 | 0.00 | 77 | 1011.7 |
| 20260505055002 | 62 | 85 | 2.0 | 7.0 | 0.00 | 0.00 | 0.00 | 76 | 1011.8 |
| 20260505054500 | 62 | 180 | 2.0 | 7.0 | 0.00 | 0.00 | 0.00 | 76 | 1011.8 |
| 20260505054002 | 62 | 262 | 2.0 | 8.0 | 0.00 | 0.00 | 0.00 | 75 | 1011.8 |
| 20260505053459 | 62 | 229 | 3.0 | 9.0 | 0.00 | 0.00 | 0.00 | 75 | 1011.7 |
| 20260505053009 | 62 | 215 | 4.0 | 9.0 | 0.00 | 0.00 | 0.00 | 75 | 1011.8 |
| 20260505052500 | 62 | 195 | 3.0 | 10.0 | 0.00 | 0.00 | 0.00 | 75 | 1011.8 |
| 20260505052001 | 62 | 213 | 3.0 | 9.0 | 0.00 | 0.00 | 0.00 | 75 | 1011.8 |
| 20260505051459 | 62 | 226 | 3.0 | 9.0 | 0.00 | 0.00 | 0.00 | 75 | 1011.8 |
| 20260505051001 | 62 | 271 | 3.0 | 10.0 | 0.00 | 0.00 | 0.00 | 75 | 1011.8 |
| 20260505050501 | 62 | 192 | 3.0 | 10.0 | 0.00 | 0.00 | 0.00 | 75 | 1011.9 |
| 20260505041504 | 63 | 181 | 3.0 | 8.0 | 0.00 | 0.00 | 0.00 | 74 | 1012.0 |
| 20260505041006 | 62 | 230 | 2.0 | 14.0 | 0.00 | 0.00 | 0.00 | 74 | 1012.0 |
| 20260505040504 | 62 | 185 | 2.0 | 7.0 | 0.00 | 0.00 | 0.00 | 74 | 1012.0 |
| 20260505040011 | 62 | 327 | 2.0 | 7.0 | 0.00 | 0.00 | 0.00 | 74 | 1011.9 |
| 20260505035504 | 62 | 247 | 3.0 | 7.0 | 0.00 | 0.00 | 0.00 | 74 | 1011.9 |
| 20260505035006 | 62 | 263 | 3.0 | 12.0 | 0.00 | 0.00 | 0.00 | 74 | 1012.0 |
| 20260505034505 | 62 | 221 | 3.0 | 12.0 | 0.00 | 0.00 | 0.00 | 74 | 1012.0 |
| 20260505034005 | 62 | 228 | 2.0 | 7.0 | 0.00 | 0.00 | 0.00 | 74 | 1011.9 |
| 20260505033505 | 62 | 269 | 2.0 | 7.0 | 0.00 | 0.00 | 0.00 | 75 | 1011.9 |
| 20260505033006 | 61 | 197 | 2.0 | 7.0 | 0.00 | 0.00 | 0.00 | 75 | 1011.9 |
| 20260505032504 | 61 | 223 | 3.0 | 7.0 | 0.00 | 0.00 | 0.00 | 75 | 1011.8 |
| 20260505032005 | 61 | 251 | 3.0 | 14.0 | 0.00 | 0.00 | 0.00 | 75 | 1011.8 |
| 20260505031505 | 62 | 221 | 3.0 | 14.0 | 0.00 | 0.00 | 0.00 | 74 | 1011.7 |
| 20260505031005 | 62 | 200 | 3.0 | 8.0 | 0.00 | 0.00 | 0.00 | 74 | 1011.7 |
| 20260505030506 | 61 | 252 | 3.0 | 8.0 | 0.00 | 0.00 | 0.00 | 74 | 1011.7 |
| 20260505030008 | 61 | 217 | 2.0 | 8.0 | 0.00 | 0.00 | 0.00 | 75 | 1011.7 |
| 20260505025506 | 61 | 182 | 2.0 | 7.0 | 0.00 | 0.00 | 0.00 | 74 | 1011.8 |
| 20260505025005 | 61 | 278 | 2.0 | 7.0 | 0.00 | 0.00 | 0.00 | 74 | 1011.9 |
| 20260505024505 | 62 | 252 | 2.0 | 9.0 | 0.00 | 0.00 | 0.00 | 73 | 1011.9 |
| 20260505024006 | 62 | 220 | 2.0 | 7.0 | 0.00 | 0.00 | 0.00 | 73 | 1011.8 |
| 20260505023505 | 62 | 216 | 3.0 | 11.0 | 0.00 | 0.00 | 0.00 | 73 | 1011.8 |
| 20260505022505 | 62 | 218 | 3.0 | 10.0 | 0.00 | 0.00 | 0.00 | 73 | 1011.9 |
| 20260505022011 | 62 | 232 | 3.0 | 8.0 | 0.00 | 0.00 | 0.00 | 72 | 1011.8 |
| 20260505021504 | 62 | 246 | 3.0 | 9.0 | 0.00 | 0.00 | 0.00 | 71 | 1011.8 |
| 20260505021008 | 62 | 238 | 2.0 | 9.0 | 0.00 | 0.00 | 0.00 | 71 | 1011.9 |
| 20260505020505 | 62 | 188 | 2.0 | 7.0 | 0.00 | 0.00 | 0.00 | 71 | 1011.9 |
| 20260505020015 | 63 | 202 | 3.0 | 8.0 | 0.00 | 0.00 | 0.00 | 70 | 1012.0 |
| 20260505015504 | 63 | 242 | 3.0 | 8.0 | 0.00 | 0.00 | 0.00 | 69 | 1011.9 |
| 20260505015008 | 62 | 192 | 3.0 | 7.0 | 0.00 | 0.00 | 0.00 | 69 | 1012.0 |
| 20260505014506 | 63 | 156 | 3.0 | 8.0 | 0.00 | 0.00 | 0.00 | 69 | 1011.9 |
| 20260505013504 | 63 | 215 | 3.0 | 10.0 | 0.00 | 0.00 | 0.00 | 68 | 1011.9 |
| 20260505013011 | 63 | 167 | 4.0 | 12.0 | 0.00 | 0.00 | 0.00 | 68 | 1011.9 |
| 20260505012504 | 63 | 163 | 3.0 | 12.0 | 0.00 | 0.00 | 0.00 | 67 | 1011.7 |
| 20260505010505 | 64 | 229 | 3.0 | 9.0 | 0.00 | 0.00 | 0.00 | 65 | 1011.7 |
| 20260505005505 | 64 | 221 | 4.0 | 8.0 | 0.00 | 0.00 | 0.00 | 64 | 1011.7 |
| 20260505005013 | 64 | 210 | 3.0 | 8.0 | 0.00 | 0.00 | 0.00 | 64 | 1011.7 |
| 20260505004505 | 64 | 278 | 3.0 | 8.0 | 0.00 | 0.00 | 0.00 | 64 | 1011.6 |
| 20260505004008 | 65 | 206 | 3.0 | 9.0 | 0.00 | 0.00 | 0.00 | 62 | 1011.6 |
| 20260505003010 | 65 | 179 | 3.0 | 8.0 | 0.00 | 0.00 | 0.00 | 62 | 1011.6 |
| 20260505002504 | 65 | 256 | 3.0 | 8.0 | 0.00 | 0.00 | 0.00 | 62 | 1011.6 |
| 20260505002010 | 66 | 223 | 3.0 | 10.0 | 0.00 | 0.00 | 0.00 | 61 | 1011.6 |
| 20260505001504 | 66 | 232 | 3.0 | 9.0 | 0.00 | 0.00 | 0.00 | 61 | 1011.7 |
| 20260505001011 | 66 | 262 | 3.0 | 11.0 | 0.00 | 0.00 | 0.00 | 61 | 1011.6 |
| 20260505000505 | 66 | 232 | 3.0 | 11.0 | 0.00 | 0.00 | 0.00 | 62 | 1011.5 |
| 20260505000012 | 66 | 254 | 3.0 | 8.0 | 0.00 | 0.00 | 0.00 | 62 | 1011.5 |
| 20260504235504 | 67 | 234 | 3.0 | 9.0 | 0.00 | 0.00 | 0.00 | 61 | 1011.3 |
| 20260504235006 | 67 | 200 | 3.0 | 9.0 | 0.00 | 0.00 | 0.00 | 60 | 1011.3 |
| 20260504234505 | 68 | 194 | 3.0 | 10.0 | 0.00 | 0.00 | 0.00 | 60 | 1011.2 |
| 20260504234012 | 68 | 226 | 3.0 | 10.0 | 0.00 | 0.00 | 0.00 | 59 | 1011.1 |
| 20260504233005 | 68 | 221 | 4.0 | 12.0 | 0.00 | 0.00 | 0.00 | 58 | 1011.1 |
| 20260504232504 | 68 | 268 | 4.0 | 12.0 | 0.00 | 0.00 | 0.00 | 58 | 1011.1 |
| 20260504232004 | 69 | 192 | 4.0 | 9.0 | 0.00 | 0.00 | 0.00 | 58 | 1011.1 |
| 20260504231005 | 69 | 237 | 4.0 | 10.0 | 0.00 | 0.00 | 0.00 | 57 | 1011.0 |
| 20260504230503 | 69 | 235 | 4.0 | 13.0 | 0.00 | 0.00 | 0.00 | 57 | 1011.0 |
| 20260504230005 | 69 | 122 | 5.0 | 13.0 | 0.00 | 0.00 | 0.00 | 56 | 1011.0 |
| 20260504225503 | 70 | 200 | 4.0 | 10.0 | 0.00 | 0.00 | 0.00 | 54 | 1011.0 |
| 20260504225004 | 71 | 156 | 4.0 | 11.0 | 0.00 | 0.00 | 0.00 | 51 | 1011.0 |
| 20260504224503 | 71 | 202 | 3.0 | 11.0 | 0.00 | 0.00 | 0.00 | 48 | 1011.0 |
| 20260504224005 | 73 | 211 | 3.0 | 10.0 | 0.00 | 0.00 | 0.00 | 39 | 1010.9 |
| 20260504223504 | 73 | 255 | 3.0 | 9.0 | 0.00 | 0.00 | 0.00 | 38 | 1010.9 |
| 20260504223003 | 73 | 209 | 3.0 | 9.0 | 0.00 | 0.00 | 0.00 | 38 | 1010.9 |
| 20260504221502 | 73 | 180 | 3.0 | 8.0 | 0.00 | 0.00 | 0.00 | 37 | 1011.0 |
| 20260504220503 | 73 | 297 | 4.0 | 11.0 | 0.00 | 0.00 | 0.00 | 37 | 1011.1 |
| 20260504220006 | 74 | 35 | 4.0 | 10.0 | 0.00 | 0.00 | 0.00 | 36 | 1011.0 |
| 20260504215503 | 74 | 202 | 4.0 | 10.0 | 0.00 | 0.00 | 0.00 | 36 | 1011.0 |
| 20260504215004 | 74 | 170 | 4.0 | 10.0 | 0.00 | 0.00 | 0.00 | 36 | 1011.0 |
| 20260504214504 | 74 | 238 | 3.0 | 10.0 | 0.00 | 0.00 | 0.00 | 36 | 1011.0 |
| 20260504214004 | 74 | 232 | 3.0 | 9.0 | 0.00 | 0.00 | 0.00 | 37 | 1011.0 |
| 20260504213504 | 74 | 248 | 4.0 | 10.0 | 0.00 | 0.00 | 0.00 | 37 | 1011.1 |
| 20260504212504 | 75 | 186 | 4.0 | 10.0 | 0.00 | 0.00 | 0.00 | 35 | 1011.1 |
| 20260504212005 | 75 | 214 | 4.0 | 12.0 | 0.00 | 0.00 | 0.00 | 35 | 1011.0 |
| 20260504211505 | 75 | 335 | 4.0 | 13.0 | 0.00 | 0.00 | 0.00 | 34 | 1011.1 |
| 20260504210504 | 75 | 209 | 4.0 | 14.0 | 0.00 | 0.00 | 0.00 | 35 | 1011.1 |
| 20260504210009 | 76 | 252 | 4.0 | 11.0 | 0.00 | 0.00 | 0.00 | 36 | 1011.1 |
| 20260504205504 | 75 | 199 | 4.0 | 10.0 | 0.00 | 0.00 | 0.00 | 34 | 1011.1 |